Showing default

LEMUR 2 WILSON, 62694

Orbit data source: Space-Track

LEMUR 2 WILSON, 62694 is a payload satellite owned by Spire (US) in SSO that was launched on Tue, 14 Jan 2025 UTC via an FALCON 9 launch vehicle from the Air Force Western Test Range (AFWTR). Payload-class satellites include a variety of spacecraft equipped with specific instruments for various scientific and technological missions. These include communications satellites like Starlink; space stations such as the ISS; scientific satellites like the Hubble; Earth observation satellites from companies like Planet Labs, Umbra, and HawkEye 360; GPS; miniature CubeSats for education and research; and military/defense satellites.

Loading next visibility...
Identifier
62694, 2025-009CP
Orbit
SSO
Country
Flag of USUS
Related business
Manufacturer
Spire/Glasgow
Mission
Operational Commercial Com/MetRO
Bus & Motor
CUBESAT 3U, Unknown motor
Mass
7.6 kg wet, 7.6 kg dry
Launch date (UTC)
2025-01-14 (2 years ago)
Launch vehicle
FALCON 9
Launch site
Air Force Western Test Range (AFWTR)
Object type
Payload
Rocket body
Debris
Shape & HBR
Box + 2 Pan, 0.5 m
Radar Cross Section
0.063 m², Medium (>0.1 m² and < 1m²)

Expand to show TLE details & history
Last TLE update: 8 hours ago

TLE from 8 hours ago
0 LEMUR 2 WILSON
1 62694U 25009CP  26238.22487807  .00002241  00000-0  20792-3 0  9994
2 62694  97.6987 315.4564 0004085 143.5052 216.6448 14.95414247 87827
Epoch: 2026-08-26T05:23Z
TLE epoch observation values (Epoch: 2026-08-26T05:23:49.465Z)
Latitude
-0.00001°
Longitude
-99.98064°
Altitude
586.418 km
Speed
7.566 km/s
True Right ascension
21h 01m 49s
True Declination
0° 00' 00"
Sunlit
Object was in full shadow at epoch
Visualization orbit readout
Latitude
Unknown
Longitude
Unknown
Altitude
Unknown
Speed
Unknown
Apparent Right ascension
Unknown
Apparent Declination
Unknown
Sunlit
N/A
Visualization observer readout
Local Sidereal Time
04:39:00
Azimuth
Unknown
Elevation
Unknown
Doppler factor
Unknown
Orbital elements
Apogee altitude
580.94 km
Perigee altitude
575.257 km
Semi-major axis
6,956.236 km
Eccentricity
0.00041
Inclination
97.6987°
RAAN
315.4564°
Arg. of periapsis
143.5052°
True anomaly
216.61687°
Mean anomaly
216.6448°
Eccentric anomaly
216.63084°
Mean motion
3.74095 °/min
Orbital period
96.23 mins
BSTAR
0.00020792
Loading maneuver chart data...
Computing Atmospheric mass density...
Loading historical data...
Loading historical data...
Loading historical data...
Loading historical data...
Loading historical data...
Loading historical data...
Loading historical data...

Documentation

Showing up to 5 results
|